Location: Maiden
(35.5760°N, 81.2120°W)
Time: 18:11:23
(UTC-05:00)

Tiangong 2 - Visible Passes

Search period start: 16 November 2018 00:00
Search period end: 26 November 2018 00:00
Orbit: 382 x 393 km, 42.8° (Epoch: 16 November)

Date Brightness Start Highest point End Pass type
(mag) Time Alt. Az. Time Alt. Az. Time Alt. Az.
21 Nov 4.6 06:18:49 10° SSE 06:19:43 11° SE 06:20:37 10° ESE visible
23 Nov 3.6 05:56:34 10° SSW 05:59:06 22° SE 06:01:39 10° E visible
24 Nov 4.2 04:59:51 11° SSE 05:00:41 11° SE 05:01:50 10° ESE visible
24 Nov 1.1 06:33:55 10° WSW 06:37:06 86° SSE 06:40:18 10° ENE visible
25 Nov 2.1 05:37:19 28° SSW 05:38:32 44° SSE 05:41:36 10° ENE visible
